Weather History for CZCP - July, 2013

Change the Weather History Date:

Tuesday, July 16, 2013

  Actual Average Record
Temperature  
Mean Temperature 30 °F -  
Max Temperature 35 °F - - ()
Min Temperature 26 °F - - ()
Degree Days  
Heating Degree Days 34    
Moisture  
Dew Point -    
Average Humidity    
Maximum Humidity    
Minimum Humidity    
Precipitation  
Precipitation 0.00 in - - ()
Sea Level Pressure  
Sea Level Pressure 30.15 in    
Wind  
Wind Speed 4 mph ()    
Max Wind Speed 12 mph    
Max Gust Speed -    
Visibility 4.3 miles    
Events      
T = Trace of Precipitation, MM = Missing Value Source: Averaged Metar Reports

Daily Weather History Graph

Daily Weather History Graph

Search for Another Location

Airport or City:

Trip Planner

Search our weather history database for the weather conditions in past years. The results will help you decide how hot, cold, wet, or windy it might be!

Date:

Astronomy

Dec. 31, 1969 Rise Set
Actual Time Sun does not rise Sun does not rise
Civil Twilight Sun does not rise Sun does not rise
Nautical Twilight Sun does not rise Sun does not rise
Astronomical Twilight Sun does not rise Sun does not rise
Moon 5:48 PM MDT (7/16) 11:51 PM MDT (7/16)
Length of Visible Light 24h 00m
Length of Day
24h 00m
First Quarter, 57% of the Moon is Illuminated
Jul 16
First Quarter
Jul 22
Full
Jul 29
Last Quarter
Aug 6
New
Aug 14
First Quarter

Hourly Weather History & Observations

Time (MDT) Temp. Windchill Dew Point Humidity Pressure Visibility Wind Dir Wind Speed Gust Speed Precip Events Conditions
12:00 AM 29 °F - - % 30.20 in 1 mi WNW 4.6 mph - -  
12:00 AM 28.4 °F 23.3 °F - N/A% 30.20 in 0.8 mi NW 4.6 mph - N/A   Clear
12:17 AM 28.4 °F 24.6 °F - N/A% 30.16 in 1.0 mi NW 3.5 mph - N/A   Clear
12:23 AM 28.4 °F 23.3 °F - N/A% 30.17 in 1.0 mi NW 4.6 mph - N/A   Clear
12:46 AM 28.4 °F 22.2 °F - N/A% 30.16 in 0.6 mi WNW 5.8 mph - N/A   Clear
1:00 AM 28.4 °F - - N/A% 30.19 in 0.5 mi NW 2.3 mph - N/A   Clear
1:10 AM 28.4 °F - - N/A% 30.16 in 0.4 mi WNW 2.3 mph - N/A   Clear
2:00 AM 28.4 °F - - N/A% 30.19 in 0.2 mi NW 2.3 mph - N/A   Clear
2:01 AM 28.4 °F - - N/A% 30.16 in 0.2 mi NW 2.3 mph - N/A   Clear
3:00 AM 28 °F - - % 30.18 in 0 mi WNW 6.9 mph - -  
3:00 AM 28.4 °F 21.2 °F - N/A% 30.18 in 0.4 mi WNW 6.9 mph - N/A   Clear
3:15 AM 28.4 °F 23.3 °F - N/A% 30.14 in 0.4 mi NW 4.6 mph - N/A   Clear
3:31 AM 28.4 °F - - N/A% 30.16 in 0.6 mi Calm Calm - N/A   Clear
3:36 AM 28.4 °F - - N/A% 30.16 in 1.0 mi NW 2.3 mph - N/A   Clear
3:45 AM 26.6 °F - - N/A% 30.15 in 1.0 mi NW 2.3 mph - N/A   Clear
3:47 AM 26.6 °F - - N/A% 30.15 in 0.6 mi NW 2.3 mph - N/A   Clear
3:50 AM 26.6 °F 22.6 °F - N/A% 30.15 in 0.6 mi NW 3.5 mph - N/A   Clear
3:54 AM 26.6 °F 22.6 °F - N/A% 30.15 in 0.4 mi NW 3.5 mph - N/A   Clear
4:00 AM 26.6 °F - - N/A% 30.18 in 0.4 mi NW 2.3 mph - N/A   Clear
4:14 AM 30.2 °F 26.7 °F - N/A% 30.15 in 0.2 mi West 3.5 mph - N/A   Partly Cloudy
4:17 AM 30.2 °F 25.4 °F - N/A% 30.14 in 0.2 mi West 4.6 mph - N/A   Mostly Cloudy
4:25 AM 28.4 °F 22.2 °F - N/A% 30.14 in 0.4 mi WNW 5.8 mph - N/A   Mostly Cloudy
4:27 AM 26.6 °F 19.1 °F - N/A% 30.14 in 0.4 mi WNW 6.9 mph - N/A   Overcast
4:39 AM 26.6 °F 20.0 °F - N/A% 30.15 in 0.1 mi WNW 5.8 mph - N/A   Overcast
5:00 AM 28.4 °F 23.3 °F - N/A% 30.18 in 0.1 mi NW 4.6 mph - N/A   Clear
5:19 AM 28.4 °F 22.2 °F - N/A% 30.14 in 0.5 mi NW 5.8 mph - N/A   Clear
5:22 AM 28.4 °F 23.3 °F - N/A% 30.14 in 1.0 mi NW 4.6 mph - N/A   Clear
5:38 AM 28.4 °F 23.3 °F - N/A% 30.15 in 2.1 mi NW 4.6 mph - N/A   Clear
5:59 AM 28.4 °F 24.6 °F - N/A% 30.13 in 3.0 mi NW 3.5 mph - N/A   Partly Cloudy
6:00 AM 29 °F - - % 30.16 in 6 mi WNW 5.8 mph - -  
6:00 AM 28.4 °F 24.6 °F - N/A% 30.16 in 6.0 mi NW 3.5 mph - N/A   Partly Cloudy
6:07 AM 28.4 °F - - N/A% 30.15 in 3.0 mi NW 2.3 mph - N/A   Clear
6:14 AM 28.4 °F 24.6 °F - N/A% 30.14 in 3.0 mi NW 3.5 mph - N/A   Partly Cloudy
6:18 AM 28.4 °F - - N/A% 30.13 in 9.0 mi NW 2.3 mph - N/A   Partly Cloudy
6:38 AM 30.2 °F 25.4 °F - N/A% 30.14 in 9.0 mi NW 4.6 mph - N/A   Clear
7:00 AM 28.4 °F 22.2 °F - N/A% 30.16 in 9.0 mi NW 5.8 mph - N/A   Clear
8:00 AM 30.2 °F 22.6 °F - N/A% 30.15 in 9.0 mi WNW 8.1 mph - N/A   Clear
9:00 AM 30 °F - - % 30.15 in 9 mi NW 4.6 mph - -  
9:00 AM 30.2 °F 26.7 °F - N/A% 30.15 in 9.0 mi NW 3.5 mph - N/A   Clear
10:00 AM 30.2 °F 22.6 °F - N/A% 30.16 in 8.0 mi WNW 8.1 mph - N/A   Clear
10:02 AM 30.2 °F - - N/A% 30.13 in 6.0 mi North - - N/A   Clear
10:17 AM 30.2 °F 23.4 °F - N/A% 30.13 in 5.0 mi WNW 6.9 mph - N/A   Clear
11:00 AM 30.2 °F 23.4 °F - N/A% 30.16 in 9.0 mi WNW 6.9 mph - N/A   Clear
12:00 PM 31 °F - - % 30.16 in 4 mi WNW 8.1 mph - -  
12:00 PM 30.2 °F 22.6 °F - N/A% 30.16 in 4.0 mi WNW 8.1 mph - N/A   Clear
12:04 PM 30.2 °F 22.6 °F - N/A% 30.12 in 2.4 mi WNW 8.1 mph - N/A   Clear
12:13 PM 32.0 °F 24.8 °F - N/A% 30.12 in 3.0 mi WNW 8.1 mph - N/A   Clear
12:23 PM 32.0 °F 28.7 °F - N/A% 30.13 in 9.0 mi NW 3.5 mph - N/A   Clear
1:00 PM 32.0 °F 26.4 °F - N/A% 30.16 in 9.0 mi WNW 5.8 mph - N/A   Clear
2:00 PM 32.0 °F 24.8 °F - N/A% 30.16 in 9.0 mi WNW 8.1 mph - N/A   Clear
3:00 PM 32 °F - - % 30.14 in 9 mi WNW 9.2 mph - -  
3:00 PM 32.0 °F 23.6 °F - N/A% 30.14 in 9.0 mi WNW 10.4 mph - N/A   Clear
4:00 PM 33.8 °F 25.3 °F - N/A% 30.14 in 9.0 mi WNW 11.5 mph - N/A   Clear
5:00 PM 33.8 °F 26.4 °F - N/A% 30.14 in 9.0 mi WNW 9.2 mph - N/A   Clear
6:00 PM 34 °F - - % 30.13 in 9 mi NW 4.6 mph - -  
6:00 PM 33.8 °F - - N/A% 30.13 in 9.0 mi NW 2.3 mph - N/A   Clear
7:00 PM 33.8 °F - - N/A% 30.13 in 9.0 mi NW 2.3 mph - N/A   Clear
8:00 PM 33.8 °F 28.6 °F - N/A% 30.13 in 9.0 mi NNW 5.8 mph - N/A   Clear
9:00 PM 35 °F - - % 30.12 in 9 mi NNW 6.7 mph - -  
9:00 PM 33.8 °F 30.8 °F - N/A% 30.12 in 9.0 mi NW 3.5 mph - N/A   Clear
10:00 PM 33.8 °F 27.7 °F - N/A% 30.11 in 9.0 mi WNW 6.9 mph - N/A   Clear
11:00 PM 33.8 °F 27.0 °F - N/A% 30.11 in 9.0 mi WNW 8.1 mph - N/A   Clear